Main page
METAR-TAF:

METAR-TAF

Airports :

Clayton Municipal Airpark

Clayton, New Mexico, United States

latitude: 36-26-54N, longitude: 103-09-11W, elevation: 4963 ft

Current weather observation

The report was made 35 minutes ago, at 21:55 UTC
Wind 20 mph from the North/Northeast
Temperature 34°F
Humidity 80%
Pressure 30.12 in. Hg
Visibility: 10 miles
Few clouds at a height of 1400 ft
Overcast at a height of 2000 ft

METAR: KCAO 172155Z AUTO 02017KT 10SM FEW014 OVC020 01/M02 A3012 RMK AO2 SLP206 T00061022

Time: 15:30 (22:30 UTC)


TAF: missing

Weather observations and forecasts of more than 4000 airports (METAR and TAF reports).

The available stations are represented by yellow and red dots on the map.

Hover mouse over dot to see the name of the station.

Then click to see weather observations and forecasts.

To change the map : click on the green buttons with a black cross to zoom in, on the green button with a dash to zoom out, or on the green arrows for adjacent maps.


METAR-TAF: